QPF
0.03 0.03 0.03 0.03 0.04 0.04 0.06 0.07 0.06 0.06 0.06 0.07 0.05 0.04 0.06 0.08 0.10 0.07 0.06 0.05 0.05 0.05 0.07 0.09 0.12 0.11 0.09 0.07 0.07 0.07 0.05 0.04 0.04 0.05 0.06 0.06 0.05 0.04
0.04 0.03 0.02 0.02 0.02 0.03 0.04 0.06 0.08 0.08 0.08 0.06 0.06 0.05 0.05 0.06 0.08 0.09 0.10 0.10 0.07 0.06 0.06 0.08 0.11 0.11 0.09 0.08 0.08 0.06 0.05 0.04 0.03 0.03 0.04 0.04 0.04 0.04
0.03 0.03 0.02 0.03 0.03 0.03 0.03 0.04 0.05 0.06 0.06 0.06 0.06 0.07 0.07 0.07 0.09 0.08 0.09 0.10 0.08 0.08 0.08 0.08 0.10 0.13 0.10 0.09 0.09 0.07 0.05 0.03 0.03 0.02 0.02 0.03 0.03 0.04
0.04 0.04 0.03 0.04 0.04 0.04 0.04 0.04 0.04 0.05 0.05 0.05 0.06 0.07 0.06 0.06 0.06 0.07 0.07 0.05 0.06 0.08 0.09 0.10 0.13 0.17 0.14 0.09 0.07 0.05 0.04 0.03 0.03 0.02 0.02 0.02 0.03 0.03
0.04 0.05 0.05 0.05 0.05 0.05 0.05 0.04 0.04 0.04 0.05 0.04 0.04 0.05 0.05 0.04 0.05 0.04 0.04 0.07 0.05 0.04 0.06 0.09 0.14 0.19 0.17 0.09 0.06 0.04 0.04 0.03 0.02 0.02 0.02 0.02 0.03 0.03
0.02 0.03 0.03 0.03 0.04 0.05 0.05 0.06 0.06 0.06 0.06 0.05 0.04 0.04 0.04 0.05 0.05 0.04 0.03 0.04 0.05 0.04 0.03 0.04 0.08 0.15 0.15 0.11 0.07 0.05 0.04 0.03 0.02 0.02 0.01 0.02 0.02 0.03
0.01 0.01 0.01 0.01 0.01 0.02 0.02 0.03 0.04 0.04 0.05 0.05 0.05 0.05 0.05 0.07 0.05 0.05 0.05 0.05 0.05 0.06 0.05 0.04 0.06 0.11 0.12 0.13 0.11 0.06 0.04 0.04 0.04 0.03 0.03 0.03 0.03 0.03
0.02 0.02 0.01 0.01 0.01 0.01 0.01 0.01 0.01 0.03 0.04 0.05 0.06 0.07 0.08 0.09 0.08 0.07 0.07 0.07 0.06 0.07 0.08 0.07 0.08 0.12 0.12 0.13 0.14 0.11 0.08 0.06 0.06 0.05 0.05 0.04 0.04 0.04
0.03 0.03 0.01 0.01 0.01 0.01 0.01 0.01 0.01 0.02 0.02 0.02 0.03 0.04 0.05 0.06 0.07 0.07 0.07 0.08 0.09 0.11 0.12 0.12 0.12 0.15 0.15 0.16 0.16 0.15 0.13 0.11 0.10 0.09 0.08 0.06 0.05 0.04
0.03 0.03 0.02 0.02 0.02 0.02 0.02 0.02 0.02 0.02 0.02 0.02 0.02 0.03 0.03 0.05 0.05 0.05 0.07 0.08 0.09 0.12 0.12 0.10 0.09 0.11 0.13 0.15 0.17 0.16 0.12 0.11 0.11 0.10 0.10 0.09 0.07 0.06
0.03 0.03 0.03 0.02 0.02 0.03 0.02 0.02 0.03 0.03 0.02 0.03 0.03 0.02 0.02 0.02 0.03 0.04 0.05 0.06 0.06 0.08 0.11 0.11 0.09 0.11 0.14 0.14 0.15 0.16 0.12 0.10 0.08 0.09 0.09 0.09 0.10 0.09
0.03 0.03 0.03 0.03 0.04 0.05 0.04 0.04 0.04 0.04 0.04 0.05 0.05 0.04 0.03 0.03 0.04 0.04 0.06 0.06 0.07 0.08 0.08 0.10 0.11 0.14 0.15 0.14 0.15 0.15 0.14 0.11 0.10 0.10 0.11 0.10 0.09 0.08
0.04 0.03 0.05 0.06 0.05 0.05 0.05 0.03 0.03 0.05 0.06 0.06 0.07 0.06 0.05 0.04 0.04 0.04 0.05 0.06 0.07 0.08 0.07 0.09 0.10 0.13 0.16 0.16 0.14 0.15 0.15 0.13 0.11 0.10 0.10 0.08 0.07 0.07
0.05 0.05 0.06 0.07 0.05 0.06 0.06 0.05 0.04 0.05 0.05 0.06 0.06 0.06 0.06 0.04 0.04 0.04 0.04 0.05 0.07 0.07 0.07 0.07 0.08 0.09 0.13 0.16 0.16 0.15 0.15 0.13 0.10 0.08 0.07 0.06 0.05 0.06
0.08 0.08 0.08 0.07 0.06 0.06 0.06 0.06 0.05 0.05 0.04 0.02 0.03 0.03 0.04 0.05 0.05 0.05 0.05 0.06 0.07 0.05 0.05 0.07 0.07 0.07 0.09 0.13 0.14 0.14 0.15 0.14 0.11 0.09 0.07 0.06 0.06 0.06
0.05 0.05 0.05 0.04 0.04 0.04 0.05 0.07 0.06 0.05 0.05 0.04 0.03 0.03 0.03 0.04 0.05 0.05 0.05 0.06 0.06 0.05 0.04 0.05 0.07 0.07 0.08 0.09 0.10 0.09 0.11 0.13 0.13 0.14 0.12 0.09 0.07 0.06
0.02 0.01 0.01 0.02 0.02 0.03 0.05 0.07 0.05 0.05 0.05 0.04 0.04 0.03 0.03 0.04 0.04 0.04 0.05 0.05 0.04 0.03 0.03 0.03 0.05 0.07 0.08 0.09 0.09 0.10 0.10 0.11 0.11 0.12 0.14 0.12 0.10 0.09
0.01 0.01 0.02 0.02 0.03 0.03 0.04 0.04 0.05 0.05 0.04 0.05 0.05 0.05 0.06 0.05 0.04 0.04 0.04 0.04 0.05 0.04 0.03 0.03 0.05 0.06 0.07 0.07 0.08 0.09 0.09 0.09 0.09 0.10 0.10 0.10 0.11 0.11
0.01 0.02 0.02 0.03 0.04 0.05 0.06 0.06 0.05 0.05 0.06 0.07 0.06 0.07 0.08 0.07 0.06 0.06 0.05 0.05 0.06 0.05 0.04 0.04 0.07 0.08 0.07 0.06 0.06 0.08 0.09 0.09 0.10 0.11 0.10 0.09 0.08 0.09
0.02 0.03 0.04 0.04 0.05 0.05 0.06 0.07 0.07 0.07 0.07 0.07 0.07 0.08 0.10 0.10 0.09 0.07 0.06 0.06 0.06 0.06 0.05 0.06 0.07 0.07 0.07 0.07 0.07 0.07 0.08 0.10 0.09 0.09 0.08 0.07 0.09 0.08
0.03 0.04 0.04 0.05 0.06 0.07 0.07 0.08 0.09 0.09 0.09 0.08 0.07 0.07 0.07 0.08 0.09 0.10 0.09 0.08 0.08 0.06 0.06 0.06 0.06 0.07 0.08 0.08 0.07 0.06 0.07 0.08 0.09 0.08 0.08 0.09 0.10 0.09
0.03 0.04 0.04 0.05 0.07 0.08 0.08 0.08 0.07 0.08 0.08 0.09 0.08 0.07 0.05 0.05 0.05 0.06 0.08 0.10 0.10 0.08 0.08 0.08 0.08 0.07 0.08 0.08 0.08 0.07 0.07 0.08 0.07 0.07 0.08 0.07 0.07 0.07
0.04 0.04 0.04 0.04 0.05 0.05 0.05 0.06 0.07 0.08 0.08 0.08 0.08 0.08 0.07 0.06 0.06 0.06 0.07 0.08 0.09 0.09 0.09 0.09 0.08 0.07 0.06 0.06 0.07 0.08 0.07 0.07 0.06 0.05 0.06 0.06 0.05 0.05
MSLP
1009.60 1009.47 1009.42 1009.40 1009.38 1009.33 1009.21 1009.02 1008.74 1008.40 1008.04 1007.68 1007.34 1007.07 1006.87 1006.76 1006.72 1006.75 1006.85 1007.01 1007.23 1007.51 1007.84 1008.23 1008.67 1009.14 1009.65 1010.17 1010.70 1011.21 1011.71 1012.20 1012.66 1013.12 1013.56 1014.00 1014.44 1014.89
1009.90 1009.78 1009.72 1009.71 1009.70 1009.66 1009.56 1009.38 1009.14 1008.84 1008.50 1008.14 1007.81 1007.51 1007.26 1007.06 1006.93 1006.86 1006.86 1006.91 1007.03 1007.21 1007.47 1007.78 1008.16 1008.60 1009.06 1009.55 1010.05 1010.54 1011.02 1011.49 1011.95 1012.40 1012.86 1013.31 1013.78 1014.25
1010.32 1010.23 1010.19 1010.18 1010.17 1010.13 1010.04 1009.88 1009.66 1009.37 1009.04 1008.69 1008.34 1008.01 1007.71 1007.45 1007.24 1007.08 1006.98 1006.93 1006.96 1007.06 1007.22 1007.46 1007.77 1008.13 1008.54 1008.96 1009.40 1009.85 1010.30 1010.74 1011.18 1011.62 1012.08 1012.56 1013.04 1013.53
1010.88 1010.80 1010.77 1010.76 1010.74 1010.70 1010.60 1010.43 1010.20 1009.91 1009.58 1009.22 1008.85 1008.49 1008.14 1007.83 1007.56 1007.33 1007.15 1007.03 1006.98 1006.99 1007.08 1007.24 1007.45 1007.72 1008.03 1008.38 1008.74 1009.11 1009.50 1009.90 1010.32 1010.76 1011.23 1011.72 1012.23 1012.74
1011.49 1011.42 1011.39 1011.37 1011.33 1011.25 1011.12 1010.94 1010.68 1010.38 1010.03 1009.65 1009.26 1008.88 1008.51 1008.16 1007.85 1007.57 1007.34 1007.17 1007.05 1007.00 1007.00 1007.06 1007.17 1007.33 1007.53 1007.76 1008.02 1008.31 1008.63 1008.98 1009.38 1009.82 1010.30 1010.81 1011.34 1011.90
1012.04 1011.97 1011.92 1011.87 1011.80 1011.68 1011.52 1011.30 1011.02 1010.70 1010.34 1009.95 1009.55 1009.16 1008.78 1008.42 1008.08 1007.79 1007.53 1007.32 1007.15 1007.03 1006.95 1006.91 1006.91 1006.95 1007.02 1007.13 1007.27 1007.46 1007.71 1008.01 1008.38 1008.81 1009.31 1009.85 1010.42 1011.01
1012.39 1012.32 1012.25 1012.16 1012.06 1011.91 1011.72 1011.48 1011.18 1010.85 1010.49 1010.10 1009.71 1009.33 1008.96 1008.60 1008.28 1007.98 1007.71 1007.47 1007.26 1007.08 1006.92 1006.79 1006.68 1006.59 1006.53 1006.51 1006.54 1006.62 1006.79 1007.04 1007.38 1007.81 1008.32 1008.89 1009.50 1010.12
1012.46 1012.37 1012.29 1012.19 1012.07 1011.91 1011.71 1011.46 1011.18 1010.86 1010.52 1010.16 1009.80 1009.44 1009.09 1008.76 1008.44 1008.16 1007.88 1007.62 1007.38 1007.15 1006.93 1006.70 1006.49 1006.28 1006.10 1005.96 1005.88 1005.87 1005.96 1006.15 1006.46 1006.88 1007.39 1007.97 1008.60 1009.26
1012.20 1012.13 1012.05 1011.96 1011.84 1011.70 1011.52 1011.31 1011.07 1010.79 1010.49 1010.18 1009.85 1009.53 1009.21 1008.90 1008.61 1008.32 1008.05 1007.79 1007.52 1007.25 1006.97 1006.68 1006.38 1006.08 1005.80 1005.56 1005.38 1005.28 1005.30 1005.44 1005.70 1006.08 1006.58 1007.16 1007.78 1008.43
1011.70 1011.65 1011.59 1011.53 1011.46 1011.36 1011.24 1011.08 1010.90 1010.68 1010.44 1010.18 1009.90 1009.61 1009.32 1009.03 1008.76 1008.48 1008.21 1007.94 1007.66 1007.36 1007.05 1006.71 1006.36 1006.00 1005.66 1005.35 1005.10 1004.93 1004.88 1004.96 1005.16 1005.50 1005.94 1006.48 1007.06 1007.67
1011.06 1011.04 1011.03 1011.02 1011.00 1010.96 1010.90 1010.82 1010.70 1010.55 1010.37 1010.15 1009.91 1009.65 1009.38 1009.11 1008.84 1008.56 1008.30 1008.03 1007.76 1007.46 1007.15 1006.81 1006.44 1006.07 1005.70 1005.35 1005.06 1004.84 1004.73 1004.74 1004.87 1005.12 1005.48 1005.93 1006.44 1006.97
1010.42 1010.44 1010.47 1010.50 1010.53 1010.55 1010.55 1010.52 1010.46 1010.36 1010.22 1010.03 1009.81 1009.57 1009.31 1009.04 1008.77 1008.51 1008.26 1008.01 1007.76 1007.50 1007.22 1006.92 1006.58 1006.24 1005.88 1005.53 1005.22 1004.97 1004.80 1004.74 1004.78 1004.94 1005.18 1005.52 1005.90 1006.32
1009.86 1009.90 1009.95 1010.01 1010.06 1010.11 1010.14 1010.14 1010.10 1010.02 1009.90 1009.72 1009.51 1009.27 1009.01 1008.75 1008.49 1008.25 1008.03 1007.82 1007.62 1007.43 1007.22 1006.98 1006.72 1006.43 1006.12 1005.81 1005.50 1005.24 1005.03 1004.90 1004.85 1004.89 1005.00 1005.20 1005.44 1005.72
1009.40 1009.44 1009.48 1009.52 1009.56 1009.60 1009.62 1009.60 1009.56 1009.46 1009.33 1009.15 1008.93 1008.68 1008.43 1008.18 1007.95 1007.74 1007.57 1007.43 1007.31 1007.20 1007.08 1006.95 1006.78 1006.58 1006.34 1006.08 1005.80 1005.54 1005.30 1005.10 1004.96 1004.89 1004.88 1004.93 1005.02 1005.15
1009.01 1009.00 1008.99 1008.98 1008.97 1008.95 1008.92 1008.86 1008.77 1008.64 1008.48 1008.28 1008.05 1007.81 1007.57 1007.35 1007.16 1007.01 1006.90 1006.84 1006.81 1006.80 1006.80 1006.77 1006.70 1006.60 1006.44 1006.24 1006.00 1005.74 1005.49 1005.25 1005.04 1004.87 1004.75 1004.67 1004.63 1004.63
1008.61 1008.54 1008.45 1008.36 1008.26 1008.15 1008.04 1007.91 1007.77 1007.60 1007.40 1007.19 1006.96 1006.74 1006.53 1006.35 1006.21 1006.13 1006.10 1006.12 1006.18 1006.27 1006.36 1006.42 1006.45 1006.43 1006.34 1006.20 1006.00 1005.77 1005.52 1005.25 1005.00 1004.77 1004.56 1004.39 1004.25 1004.14
1008.16 1008.00 1007.82 1007.63 1007.44 1007.25 1007.05 1006.86 1006.66 1006.45 1006.24 1006.02 1005.82 1005.62 1005.46 1005.34 1005.27 1005.25 1005.29 1005.38 1005.51 1005.65 1005.80 1005.93 1006.02 1006.05 1006.02 1005.92 1005.77 1005.56 1005.32 1005.06 1004.80 1004.54 1004.30 1004.08 1003.88 1003.71
1007.63 1007.40 1007.14 1006.88 1006.62 1006.36 1006.10 1005.86 1005.63 1005.41 1005.20 1005.02 1004.85 1004.70 1004.60 1004.52 1004.50 1004.54 1004.61 1004.73 1004.88 1005.04 1005.20 1005.34 1005.44 1005.48 1005.48 1005.41 1005.28 1005.11 1004.90 1004.67 1004.43 1004.19 1003.95 1003.72 1003.50 1003.30
1007.08 1006.82 1006.53 1006.23 1005.93 1005.64 1005.37 1005.12 1004.90 1004.69 1004.52 1004.37 1004.25 1004.16 1004.09 1004.06 1004.06 1004.10 1004.18 1004.27 1004.38 1004.50 1004.62 1004.71 1004.77 1004.79 1004.77 1004.71 1004.60 1004.46 1004.30 1004.12 1003.92 1003.73 1003.52 1003.32 1003.12 1002.91
1006.62 1006.36 1006.08 1005.80 1005.51 1005.24 1005.00 1004.78 1004.60 1004.44 1004.32 1004.22 1004.14 1004.08 1004.04 1004.02 1004.01 1004.01 1004.02 1004.04 1004.06 1004.08 1004.09 1004.09 1004.07 1004.03 1003.98 1003.90 1003.80 1003.70 1003.58 1003.45 1003.32 1003.18 1003.02 1002.86 1002.68 1002.48
1006.33 1006.13 1005.91 1005.68 1005.46 1005.25 1005.06 1004.91 1004.78 1004.69 1004.62 1004.56 1004.51 1004.47 1004.42 1004.36 1004.28 1004.20 1004.10 1003.99 1003.87 1003.75 1003.62 1003.50 1003.38 1003.26 1003.15 1003.05 1002.96 1002.88 1002.81 1002.73 1002.66 1002.56 1002.45 1002.31 1002.14 1001.94
1006.28 1006.16 1006.03 1005.89 1005.75 1005.63 1005.52 1005.44 1005.38 1005.33 1005.30 1005.26 1005.22 1005.15 1005.06 1004.92 1004.76 1004.55 1004.30 1004.04 1003.76 1003.48 1003.20 1002.94 1002.72 1002.52 1002.36 1002.24 1002.15 1002.08 1002.04 1002.00 1001.95 1001.89 1001.79 1001.65 1001.46 1001.24
1006.46 1006.43 1006.39 1006.34 1006.29 1006.25 1006.21 1006.19 1006.17 1006.16 1006.14 1006.10 1006.03 1005.91 1005.74 1005.51 1005.22 1004.88 1004.48 1004.07 1003.63 1003.20 1002.79 1002.42 1002.10 1001.84 1001.64 1001.49 1001.40 1001.34 1001.30 1001.27 1001.22 1001.14 1001.00 1000.82 1000.57 1000.28
Thickness
5746 5746 5744 5744 5745 5745 5743 5740 5733 5727 5730 5738 5741 5746 5746 5745 5743 5742 5741 5739 5738 5738 5737 5736 5735 5734 5733 5732 5731 5730 5728 5727 5725 5723 5722 5720 5719 5718
5741 5739 5738 5738 5738 5738 5737 5736 5734 5728 5725 5731 5735 5739 5740 5741 5739 5738 5737 5736 5735 5734 5734 5733 5733 5731 5729 5728 5728 5727 5725 5724 5723 5721 5719 5718 5717 5716
5734 5733 5731 5731 5730 5730 5730 5729 5728 5726 5721 5725 5730 5734 5733 5733 5732 5732 5733 5732 5732 5730 5730 5729 5729 5728 5727 5726 5724 5723 5722 5721 5720 5718 5716 5715 5714 5713
5727 5725 5723 5724 5722 5721 5721 5720 5720 5720 5717 5716 5721 5724 5726 5727 5727 5726 5728 5729 5729 5728 5726 5726 5725 5724 5723 5721 5720 5719 5718 5718 5717 5715 5714 5712 5711 5710
5721 5718 5716 5715 5713 5713 5712 5712 5712 5714 5713 5711 5713 5716 5718 5720 5720 5720 5721 5722 5723 5724 5722 5721 5720 5719 5718 5717 5716 5716 5715 5714 5713 5712 5710 5709 5708 5706
5715 5713 5711 5708 5706 5704 5704 5703 5703 5702 5703 5703 5704 5707 5709 5712 5710 5709 5709 5712 5714 5717 5717 5716 5715 5714 5714 5712 5712 5711 5710 5709 5708 5708 5706 5705 5704 5702
5708 5707 5705 5702 5700 5698 5697 5696 5695 5693 5693 5692 5694 5696 5698 5699 5699 5700 5700 5703 5705 5708 5707 5708 5708 5707 5707 5707 5706 5706 5705 5704 5703 5703 5702 5701 5699 5698
5700 5699 5698 5696 5694 5692 5691 5689 5688 5686 5684 5684 5685 5685 5687 5690 5691 5691 5690 5691 5692 5698 5697 5698 5701 5701 5702 5703 5703 5703 5701 5700 5699 5698 5697 5695 5694 5694
5693 5691 5690 5691 5688 5685 5683 5683 5681 5680 5679 5677 5677 5678 5680 5682 5682 5682 5682 5681 5683 5689 5688 5688 5692 5693 5696 5698 5698 5697 5696 5695 5694 5692 5692 5690 5689 5688
5686 5684 5682 5680 5679 5676 5675 5675 5674 5673 5672 5671 5672 5673 5676 5676 5675 5675 5675 5676 5679 5683 5683 5679 5683 5684 5689 5690 5691 5691 5690 5689 5688 5687 5686 5685 5684 5683
5680 5678 5675 5672 5670 5668 5666 5665 5665 5666 5667 5667 5667 5667 5667 5668 5667 5666 5666 5665 5666 5672 5675 5673 5674 5675 5677 5679 5682 5682 5682 5682 5681 5680 5680 5680 5679 5677
5672 5670 5667 5664 5661 5658 5656 5656 5655 5655 5656 5658 5658 5659 5659 5660 5659 5658 5657 5655 5656 5659 5665 5664 5664 5664 5664 5669 5672 5672 5672 5673 5673 5673 5673 5673 5672 5670
5663 5661 5659 5655 5652 5649 5648 5648 5647 5647 5647 5648 5649 5650 5651 5651 5651 5651 5652 5650 5649 5650 5656 5656 5655 5655 5654 5656 5660 5662 5664 5665 5665 5665 5666 5666 5665 5664
5654 5653 5651 5648 5644 5642 5641 5641 5640 5639 5639 5640 5640 5640 5641 5641 5643 5645 5645 5644 5645 5645 5647 5648 5646 5646 5646 5647 5649 5653 5656 5658 5659 5658 5658 5658 5657 5657
5646 5644 5641 5639 5637 5636 5636 5634 5633 5631 5631 5630 5631 5631 5632 5634 5636 5636 5637 5637 5638 5639 5639 5640 5639 5640 5640 5640 5641 5644 5647 5649 5651 5651 5652 5651 5651 5651
5637 5634 5632 5631 5629 5628 5628 5627 5626 5625 5623 5622 5622 5624 5625 5625 5626 5627 5627 5627 5626 5627 5630 5631 5632 5633 5632 5633 5634 5635 5638 5640 5642 5644 5644 5645 5645 5645
5626 5625 5625 5624 5623 5622 5622 5621 5620 5618 5615 5615 5615 5615 5615 5616 5616 5618 5619 5619 5618 5618 5619 5621 5623 5625 5625 5625 5625 5627 5629 5631 5634 5635 5636 5636 5637 5637
5617 5618 5618 5617 5615 5614 5613 5612 5611 5609 5608 5608 5608 5607 5606 5606 5607 5609 5610 5610 5609 5610 5611 5612 5613 5614 5615 5617 5618 5620 5622 5623 5625 5627 5629 5628 5628 5630
5612 5612 5611 5610 5608 5607 5605 5604 5604 5603 5602 5601 5601 5600 5600 5599 5599 5599 5600 5600 5601 5601 5603 5604 5605 5604 5603 5605 5609 5612 5613 5615 5617 5619 5620 5621 5621 5622
5609 5607 5605 5603 5602 5600 5599 5598 5597 5597 5595 5594 5594 5593 5593 5592 5591 5591 5592 5592 5592 5593 5595 5596 5597 5597 5597 5599 5600 5603 5606 5608 5609 5610 5612 5613 5613 5614
5603 5601 5599 5597 5596 5594 5593 5591 5591 5590 5589 5587 5586 5586 5585 5585 5584 5585 5585 5584 5584 5586 5586 5588 5590 5591 5592 5593 5594 5595 5599 5601 5603 5603 5604 5605 5605 5606
5597 5594 5593 5591 5589 5588 5587 5585 5584 5582 5581 5580 5579 5579 5578 5577 5578 5578 5578 5578 5578 5579 5580 5581 5583 5583 5584 5584 5586 5589 5591 5593 5595 5597 5598 5600 5600 5600
5591 5589 5587 5585 5582 5581 5580 5578 5577 5576 5574 5573 5573 5572 5572 5571 5571 5571 5572 5572 5572 5573 5573 5574 5574 5575 5576 5578 5580 5582 5584 5586 5587 5588 5589 5592 5593 5594